Wind_Speed
18 18 17 17 17 15 13 11 10 7 5 4 4 3 4 5 4 4 5 5 5 5 5 6 6 5 5 4 4 4 4 4 4 4 4 4 4 4 5 5 5 6 6
17 18 17 17 17 15 13 11 11 8 6 4 4 3 4 5 5 4 4 5 4 5 6 6 6 6 5 5 5 5 5 5 5 6 6 6 6 6 6 7 7 8 8
16 17 17 17 16 15 14 12 10 9 6 4 3 3 3 4 5 5 5 5 5 5 5 7 7 7 6 5 5 5 6 6 6 7 7 7 8 8 8 9 9 10 10
15 16 16 17 16 15 14 12 9 8 6 4 2 2 3 4 5 5 5 5 5 5 5 7 8 8 8 7 7 7 7 7 8 8 8 9 10 10 10 11 11 11 11
15 15 16 16 15 14 13 11 9 8 7 5 3 2 3 3 5 6 6 6 6 6 6 7 9 9 9 9 9 9 9 9 9 9 10 11 11 12 12 13 13 13 14
15 16 15 16 15 14 12 9 8 7 6 5 3 2 3 4 5 6 7 7 7 7 8 7 8 10 10 10 10 10 10 11 11 12 13 13 13 14 15 15 15 16 16
16 16 16 16 15 13 11 9 7 6 5 5 5 3 3 3 4 6 7 8 8 9 9 9 9 9 10 11 12 12 12 12 13 14 14 15 15 15 16 17 17 18 19
16 16 17 16 15 13 10 9 7 6 5 5 5 4 4 4 5 6 7 8 9 9 10 10 10 10 11 11 12 13 13 14 14 15 16 16 16 16 17 18 19 19 20
15 16 17 16 14 12 10 9 7 6 6 6 6 6 6 5 6 6 7 8 9 9 9 10 10 11 11 12 13 13 14 14 15 16 16 16 17 18 19 19 19 19 19
16 16 17 16 13 11 9 9 8 7 7 7 7 7 7 6 6 7 7 8 8 9 10 10 11 12 12 12 12 13 14 14 15 16 17 17 18 18 19 19 20 20 20
16 16 15 16 13 11 10 9 9 8 8 8 8 8 7 7 7 7 7 7 8 9 9 10 10 11 12 13 13 14 15 16 17 17 18 19 19 19 19 19 21 22 22
16 16 15 15 14 12 10 10 9 9 9 9 8 8 8 7 7 7 7 8 8 9 10 11 12 12 12 13 14 15 16 16 17 18 18 19 19 20 20 21 22 23 24
15 16 16 16 15 13 11 10 10 10 9 9 8 8 9 8 7 7 7 8 9 9 10 11 11 12 13 14 15 15 16 17 17 18 19 20 20 21 22 23 23 24 25
15 16 17 17 16 14 12 11 11 10 10 10 9 9 9 9 8 7 8 8 9 10 11 11 11 12 13 14 16 16 17 18 18 19 19 20 21 22 22 24 25 26 27
17 17 17 17 17 14 13 12 12 11 11 10 10 10 10 10 9 8 8 9 10 11 11 11 12 13 14 15 16 17 18 18 19 20 20 21 22 23 24 25 26 27 27
18 18 18 18 17 15 13 13 13 12 12 11 11 11 10 10 10 10 10 11 11 12 12 12 14 15 17 17 18 18 19 20 21 21 22 23 24 25 26 26 27 27 27
19 19 19 19 17 15 15 15 14 14 13 13 12 12 12 11 11 12 12 12 13 13 13 14 16 17 18 19 20 21 22 22 22 23 24 25 25 26 26 26 27 28 29
20 21 20 19 18 17 16 16 16 15 15 14 14 14 14 14 14 14 14 14 14 14 15 16 17 18 19 20 21 22 22 23 23 24 25 25 25 26 26 27 28 29 29
21 20 20 20 19 19 18 18 17 16 16 16 16 16 17 16 16 16 16 16 16 16 17 17 18 19 21 22 22 22 22 23 24 24 25 26 27 27 27 28 29 30 31
20 20 20 20 21 21 20 19 18 18 18 17 17 18 17 17 17 18 18 18 19 19 19 20 20 21 22 23 23 23 23 24 24 25 26 27 28 28 29 30 31 31 31
22 22 22 22 21 21 21 21 19 20 20 19 18 19 19 19 19 19 20 20 21 21 22 23 23 23 23 24 24 24 25 26 26 27 28 28 28 29 29 30 31 32 33
23 24 24 23 22 23 23 22 21 21 21 21 20 20 20 21 20 21 22 23 23 24 24 24 24 24 25 25 25 26 26 27 28 29 29 29 29 30 30 31 32 32 33
26 25 25 24 24 24 24 23 22 22 23 22 21 21 22 23 23 23 24 23 24 24 24 24 25 25 26 26 27 27 28 29 29 30 30 30 30 31 31 32 33 33 34
26 26 25 25 25 25 25 26 24 23 23 22 22 22 23 24 24 24 25 25 26 26 25 26 27 27 27 28 28 29 30 30 31 31 31 31 31 32 33 33 33 33 33
26 26 27 27 26 26 27 26 24 23 22 23 23 24 24 25 26 26 27 27 27 27 27 28 28 28 27 28 28 29 30 31 31 32 32 32 33 33 33 34 34 34 33
28 28 29 28 28 27 26 25 25 25 24 24 25 26 26 26 27 28 28 27 28 28 29 29 28 28 28 28 29 30 31 32 32 33 33 33 34 33 33 34 34 33 33
Wind_Direction
3 4 4 4 3 359 356 355 351 345 334 317 297 247 232 228 225 226 216 206 216 219 219 218 226 231 234 237 241 248 254 257 263 268 274 279 282 284 286 282 280 281 282
0 2 1 360 358 357 355 353 352 347 335 324 306 254 229 223 219 222 210 212 227 232 232 231 230 235 237 239 241 248 251 254 256 263 271 277 279 281 285 284 281 281 282
360 1 357 355 355 356 355 352 349 349 342 331 304 268 240 228 222 220 215 223 234 240 241 237 233 234 237 241 245 253 261 263 262 267 271 274 278 280 282 282 282 281 279
356 356 352 351 353 355 353 353 354 358 360 358 335 274 240 226 223 224 224 228 230 237 241 242 240 239 242 246 250 258 266 267 269 271 273 277 278 280 281 282 282 281 279
355 352 349 350 351 352 349 352 357 1 4 3 354 273 246 245 227 230 233 234 234 239 246 248 244 246 249 253 256 260 266 269 271 274 277 279 279 280 282 282 279 280 279
349 348 349 350 351 351 349 351 355 360 4 2 350 312 270 263 249 241 240 239 241 244 248 250 249 251 251 256 260 263 266 271 273 275 277 278 279 280 281 279 277 278 280
347 348 350 351 352 349 352 351 351 355 356 357 346 321 295 273 262 261 250 246 247 248 246 248 253 257 260 261 262 263 268 271 274 276 278 279 279 279 280 279 278 279 281
346 347 351 348 348 348 346 347 348 349 347 349 345 335 317 296 278 271 262 253 250 250 249 253 256 260 266 266 265 265 271 273 275 277 280 282 283 281 280 281 279 279 279
345 349 351 351 351 348 346 343 345 347 344 344 341 333 319 307 290 278 270 261 256 253 253 256 258 264 267 269 268 269 274 275 276 277 280 281 282 283 281 282 283 282 278
345 348 350 352 354 354 350 347 344 339 334 333 333 330 316 305 300 287 281 272 266 261 259 259 262 265 267 267 271 274 277 279 280 279 279 281 283 283 283 282 281 280 281
347 349 350 352 353 353 349 343 338 337 332 329 329 329 323 311 302 290 283 279 270 265 266 265 267 268 269 270 272 275 278 280 282 280 280 282 282 283 282 281 280 279 279
342 347 348 348 347 346 342 338 332 330 330 331 329 327 326 315 300 288 283 282 276 273 273 272 271 272 273 276 276 276 280 282 281 280 280 282 282 282 282 281 282 281 281
335 342 346 344 342 341 336 334 330 328 325 324 323 323 324 320 300 288 286 283 280 278 277 278 276 275 279 280 280 281 282 284 283 282 283 282 282 282 282 283 282 283 284
326 331 337 339 337 335 331 331 327 324 322 319 318 319 321 324 309 289 285 282 283 281 280 281 281 283 285 284 284 285 286 286 285 284 285 285 285 284 283 285 284 285 286
317 322 329 332 330 326 324 324 321 320 316 314 312 312 314 318 316 299 291 289 289 287 286 285 285 286 290 292 291 290 290 289 288 287 286 286 285 285 285 287 287 287 287
310 315 321 324 323 317 314 314 311 315 312 306 305 306 308 306 310 311 305 298 295 294 291 289 290 291 290 291 291 293 293 290 289 288 288 287 287 286 287 287 287 288 289
305 308 311 313 313 308 309 305 303 303 304 302 301 301 302 303 303 302 305 306 304 300 295 292 293 293 292 290 290 290 292 292 290 288 289 288 289 290 289 288 288 290 291
302 304 306 306 304 302 302 302 301 297 297 298 296 295 295 296 296 297 299 301 303 302 299 297 296 296 295 294 295 294 294 293 290 290 291 291 291 291 290 289 290 291 292
297 299 301 301 302 300 300 297 296 296 293 293 292 293 292 290 291 292 295 297 299 302 302 300 299 299 299 298 297 295 296 295 293 293 292 293 293 292 291 291 292 292 292
291 293 296 298 300 302 301 296 293 293 292 292 291 293 294 292 291 290 292 294 296 298 300 299 298 298 298 298 299 298 298 296 295 294 294 296 295 292 291 293 293 293 293
287 292 293 295 295 296 296 296 295 297 293 290 290 290 290 290 290 291 291 292 294 295 296 296 296 296 296 297 297 297 296 296 294 295 297 298 297 294 293 294 294 294 294
283 288 291 291 292 294 294 294 293 296 294 289 287 289 290 290 290 292 291 290 290 290 292 294 295 295 295 295 296 295 295 295 295 296 297 298 296 295 294 294 295 295 295
281 285 289 289 292 292 292 292 292 292 293 291 288 289 290 290 291 291 293 292 292 291 292 295 296 296 295 295 295 295 294 295 295 295 295 296 296 296 296 297 297 296 295
280 284 287 287 290 292 292 292 293 290 289 289 290 292 293 291 290 289 291 292 292 292 292 295 297 296 295 295 295 295 295 295 295 295 296 297 296 296 297 297 298 297 297
278 282 285 286 288 290 292 294 295 293 290 289 290 291 292 292 291 291 291 291 291 291 293 295 296 296 295 295 296 297 297 297 297 296 296 297 297 296 296 297 298 299 299
276 279 281 284 286 287 288 290 292 292 290 289 290 291 290 290 291 291 291 291 292 292 292 293 294 295 294 294 295 296 296 296 297 297 297 297 297 297 297 298 298 299 300
Height
5911 5908 5905 5903 5900 5898 5895 5893 5892 5890 5889 5889 5888 5889 5889 5890 5891 5891 5892 5893 5894 5895 5896 5897 5898 5898 5899 5900 5900 5900 5901 5901 5902 5902 5902 5902 5902 5902 5902 5902 5902 5902 5902
5911 5908 5906 5903 5900 5898 5895 5893 5891 5890 5888 5888 5888 5888 5888 5889 5890 5891 5891 5892 5893 5894 5895 5896 5897 5897 5898 5899 5899 5899 5900 5900 5901 5901 5901 5901 5902 5901 5901 5900 5900 5900 5900
5911 5908 5905 5903 5900 5897 5895 5892 5890 5889 5887 5887 5887 5887 5888 5888 5889 5890 5890 5891 5892 5893 5893 5894 5895 5896 5897 5897 5898 5898 5899 5899 5899 5899 5900 5900 5900 5899 5899 5899 5899 5898 5898
5910 5908 5905 5902 5899 5897 5895 5892 5890 5888 5887 5886 5886 5886 5887 5887 5888 5888 5889 5890 5891 5892 5892 5892 5893 5894 5895 5896 5897 5897 5897 5897 5897 5898 5898 5898 5898 5898 5897 5897 5896 5896 5895
5910 5907 5905 5902 5899 5897 5894 5892 5890 5889 5887 5886 5886 5886 5886 5887 5887 5888 5889 5889 5890 5890 5890 5891 5892 5893 5894 5894 5895 5895 5895 5895 5895 5896 5896 5895 5895 5895 5895 5894 5894 5894 5893
5910 5907 5904 5902 5899 5896 5894 5892 5890 5889 5888 5887 5886 5886 5886 5886 5886 5887 5887 5888 5888 5889 5889 5889 5890 5891 5891 5892 5892 5893 5893 5893 5893 5893 5893 5893 5893 5892 5892 5891 5891 5890 5890
5909 5907 5904 5901 5898 5896 5894 5892 5890 5889 5889 5887 5886 5885 5885 5885 5885 5886 5886 5886 5887 5887 5887 5888 5888 5889 5889 5889 5890 5890 5890 5890 5890 5890 5890 5889 5889 5889 5888 5888 5887 5886 5885
5909 5906 5903 5900 5897 5895 5894 5892 5891 5889 5889 5888 5887 5885 5885 5884 5884 5884 5884 5884 5885 5885 5885 5886 5886 5886 5887 5887 5887 5888 5887 5887 5887 5887 5886 5886 5885 5884 5884 5883 5883 5882 5881
5908 5906 5903 5900 5897 5894 5893 5892 5891 5890 5888 5887 5886 5885 5884 5883 5883 5883 5883 5883 5883 5883 5883 5883 5884 5884 5884 5884 5884 5884 5884 5884 5883 5883 5882 5882 5881 5880 5880 5879 5878 5877 5876
5907 5905 5902 5899 5896 5895 5893 5892 5891 5889 5888 5887 5885 5884 5883 5883 5882 5881 5881 5881 5881 5881 5881 5881 5881 5881 5881 5881 5881 5881 5881 5880 5880 5879 5878 5878 5877 5876 5875 5874 5873 5872 5871
5907 5904 5902 5899 5896 5894 5893 5892 5890 5889 5888 5886 5885 5883 5882 5881 5880 5880 5879 5879 5879 5879 5879 5879 5878 5879 5879 5878 5878 5878 5877 5876 5876 5875 5874 5873 5872 5871 5870 5869 5868 5867 5866
5905 5903 5901 5899 5896 5894 5892 5891 5889 5888 5887 5885 5884 5883 5881 5880 5879 5878 5878 5877 5877 5877 5877 5876 5876 5876 5876 5875 5874 5874 5873 5872 5872 5871 5869 5868 5867 5866 5865 5864 5862 5861 5860
5905 5902 5900 5898 5896 5893 5891 5889 5888 5887 5886 5884 5883 5882 5880 5878 5877 5876 5876 5876 5875 5875 5874 5874 5873 5873 5872 5872 5871 5870 5869 5868 5867 5866 5865 5863 5862 5861 5860 5858 5857 5855 5854
5903 5901 5899 5896 5894 5892 5890 5888 5887 5886 5884 5883 5882 5880 5878 5877 5875 5874 5874 5873 5873 5872 5872 5871 5870 5870 5869 5868 5867 5866 5865 5863 5862 5861 5860 5858 5857 5855 5854 5853 5851 5849 5847
5900 5898 5896 5894 5892 5890 5888 5887 5885 5884 5882 5881 5880 5878 5877 5875 5874 5872 5872 5871 5870 5870 5869 5868 5867 5866 5865 5864 5863 5861 5860 5859 5857 5856 5855 5853 5851 5850 5848 5846 5844 5842 5840
5897 5895 5893 5891 5889 5887 5886 5884 5883 5881 5880 5879 5877 5876 5875 5873 5872 5871 5870 5869 5868 5867 5866 5865 5864 5862 5861 5860 5858 5857 5855 5854 5852 5851 5849 5847 5845 5844 5842 5840 5838 5836 5834
5893 5892 5890 5888 5885 5884 5883 5881 5879 5878 5877 5876 5874 5873 5872 5871 5870 5869 5867 5866 5865 5863 5862 5861 5860 5858 5857 5855 5854 5852 5850 5848 5846 5845 5843 5841 5839 5837 5835 5833 5831 5829 5826
5889 5888 5886 5884 5882 5881 5879 5878 5876 5875 5873 5872 5871 5870 5869 5868 5867 5866 5864 5863 5861 5860 5858 5857 5855 5854 5852 5850 5848 5846 5844 5842 5840 5838 5836 5835 5833 5831 5828 5826 5824 5822 5819
5885 5884 5882 5880 5878 5876 5874 5873 5872 5870 5869 5868 5867 5866 5864 5863 5862 5861 5860 5859 5857 5856 5854 5852 5851 5849 5847 5845 5843 5841 5839 5837 5835 5832 5831 5829 5826 5824 5822 5819 5817 5814 5811
5880 5879 5878 5876 5874 5872 5870 5869 5867 5866 5864 5863 5863 5861 5860 5859 5858 5857 5855 5854 5853 5851 5849 5847 5846 5844 5842 5840 5838 5836 5833 5831 5829 5826 5824 5822 5819 5817 5814 5812 5809 5806 5803
5874 5873 5872 5871 5869 5867 5866 5864 5863 5861 5860 5858 5858 5856 5855 5854 5853 5851 5850 5849 5847 5846 5844 5842 5840 5838 5836 5834 5832 5830 5827 5825 5822 5820 5817 5815 5812 5809 5807 5804 5801 5798 5795
5868 5867 5866 5865 5864 5862 5860 5858 5857 5856 5854 5853 5852 5851 5849 5848 5847 5846 5844 5843 5841 5840 5838 5836 5834 5832 5830 5828 5826 5823 5821 5818 5816 5813 5810 5807 5805 5802 5799 5796 5793 5790 5786
5862 5861 5860 5859 5858 5856 5855 5853 5851 5850 5849 5847 5846 5845 5844 5842 5841 5840 5838 5837 5835 5833 5831 5829 5827 5825 5823 5821 5819 5816 5814 5811 5809 5806 5803 5800 5797 5794 5791 5788 5785 5782 5778
5856 5855 5854 5853 5851 5850 5848 5846 5842 5842 5841 5841 5839 5838 5837 5835 5834 5833 5831 5830 5828 5826 5824 5822 5820 5818 5816 5814 5811 5809 5806 5804 5801 5798 5795 5792 5789 5786 5783 5780 5777 5773 5770
5849 5848 5847 5846 5845 5843 5841 5839 5837 5836 5835 5835 5834 5832 5831 5829 5828 5826 5825 5823 5821 5819 5817 5815 5813 5811 5808 5806 5804 5801 5799 5796 5793 5790 5787 5784 5781 5778 5775 5771 5768 5764 5761
5842 5841 5840 5839 5838 5837 5835 5833 5831 5831 5829 5828 5827 5825 5823 5822 5821 5819 5817 5815 5814 5812 5809 5807 5805 5803 5801 5798 5796 5794 5791 5788 5785 5782 5778 5775 5772 5769 5766 5762 5759 5755 5752